Find Starlink 33743

NORAD ID: 63440 Int'l Des: 2025-069 Owner: SPXS Country: US Constellation: starlink operational
LEOCIRCULAR

当前视图

正在加载3D地球...

About Starlink 33743

Starlink 33743 (NORAD 63440) is a starlink constellation satellite (v2 mini) launched Apr 4, 2025 by SPXS of US. It operates in LEO, CIRCULAR orbit with a mass of 575.00 kg.

关于 Starlink 33743

正在加载描述...

即将过境

Passes for default location (London). Set your location on the main map for personalized predictions.

高度历史

Loading altitude history...

两行轨道根数

1 63440U 25069H 26193.23085994 .00015597 00000-0 47172-3 0 9991
2 63440 53.1601 278.2376 0002247 49.3292 310.7905 15.34403868 72448
Epoch: Jul 12, 2026 • Age: 10 hours

当前状态

高度 464.8 km
远地点 / 近地点 N/A
速度 7.63 km/s
星下点 -1.71°S, 68.67°W
发射日期 Apr 4, 2025
运行时间 1.2 years
类型 internet

技术详情

分类 Payload
质量 575.00 kg
干质量 530.00 kg
总质量 575.00 kg
长度 0.30 m
直径 4.10 m
跨度 29.00 m
形状 Box + pan
制造商 SPXS
平台类型 Starlink V2MO
阶段状态 In Orbit
所有者/国家 SPXS/US

Most Searched